Погода в Капитановке

Украина / Кировоградская область     48°55′02″N   31°43′11″E
темп.,
°C
ветер,
м/с
пор.,
м/с
влажн.,
%
обл.,
%
осадки,
мм/ч
давл.,
гПа
погр.,
м
23 сентября, чт
чт2300:00+6сз3587100 0.0 1015376
03:00+6сз3590100 0.1 1015373
06:00+6сз3691100 0.1 1015392
09:00+7сз458194 0.1 1015544
12:00+8зсз557497 0.1 1015821
15:00+7зсз4680100 0.3 1015938
18:00+7з3781100 0.1 1015695
21:00+7з3686100 0.2 1015477
24 сентября, пт
пт2400:00+7юз3488100 0.1 1014124
03:00+7ююз5108498 0.1 1012405
06:00+7ююз71489100 0.6 1010537
09:00+8юз81783100 1.9 1008722
12:00+8юз101888100 5.4 1006736
15:00+12зюз91479100 7.6 10051192
18:00+11зсз713705 0.6 1005683
21:00+9з51383100 0.6 1007448
25 сентября, сб
сб2500:00+9з61381100 0.0 1008528
03:00+8з6158668 0.0 1008592
06:00+10зсз7126775 0.0 10091086
09:00+11зсз8117062 0.1 10111297
12:00+14зсз8125596 0.1 10121843
15:00+13зсз71161100 0.1 10141130
18:00+12з4971100 0.0 1015462
21:00+13з51176100 0.0 1016558
26 сентября, вс
вс2600:00+13з51281100 0.0 1016461
03:00+14з61383100 0.1 1015540
06:00+14з6138550 0.1 1016505
09:00+14сз6127650 0.2 1017880
12:00+17сз79491 0.0 10171452
15:00+19ссз78450 0.0 10171753
18:00+15ссв68610 0.0 1018541
21:00+10с410800 0.0 1020359
27 сентября, пн
пн2700:00+9ссз34830 0.0 102067
03:00+8ссз34864 0.0 102179
06:00+7ссз22855 0.0 102123
09:00+11с346219 0.0 1021313
12:00+14ссв444862 0.0 10211562
15:00+14ссв4446100 0.0 10211675
18:00+13ссв3550100 0.0 1021268
21:00+12ссв3557100 0.0 1022176